CXA8285 ZGHA-ZLIC

Flight info

Callsign CXA8285
Flight time N/A
Altitude 30100
Route OLTUS W226 IPMUG W611 BIVAV W138 DYG W139 ENH W102 SHX H14 ZS H142 DOVOP W541 OVKAB W94 XFG W216 YHD
Aircraft B738/M-SDE2E3FGHIRWXY/LB1

Departure

Time 2026-04-21 13:05
Airport Changsha Huanghua International Airport (ZGHA)

Arrival

Time N/A
Airport Yinchuan Hedong International Airport (ZLIC)
Time Latitude Longitude Altitude Speed Heading
2026-04-21 12:43 28.19207 113.21532 213 ft 0 kts 347°
2026-04-21 12:54 28.19204 113.21533 216 ft 2 kts 347°
2026-04-21 12:54 28.19186 113.21536 214 ft 3 kts 356°
2026-04-21 12:55 28.19167 113.21535 214 ft 3 kts 18°
2026-04-21 12:55 28.19152 113.21527 214 ft 3 kts 65°
2026-04-21 12:55 28.19149 113.21518 214 ft 0 kts 87°
2026-04-21 12:58 28.19150 113.21530 213 ft 3 kts 87°
2026-04-21 12:58 28.19151 113.21559 213 ft 5 kts 87°
2026-04-21 12:58 28.19153 113.21602 213 ft 6 kts 87°
2026-04-21 12:58 28.19156 113.21657 213 ft 8 kts 87°
2026-04-21 12:59 28.19158 113.21721 213 ft 9 kts 89°
2026-04-21 12:59 28.19125 113.21774 219 ft 9 kts 155°
2026-04-21 12:59 28.19061 113.21780 216 ft 10 kts 175°
2026-04-21 12:59 28.18989 113.21787 215 ft 11 kts 180°
2026-04-21 13:00 28.18912 113.21788 216 ft 11 kts 178°
2026-04-21 13:00 28.18837 113.21791 216 ft 11 kts 178°
2026-04-21 13:00 28.18764 113.21797 216 ft 10 kts 175°
2026-04-21 13:00 28.18693 113.21803 216 ft 10 kts 177°
2026-04-21 13:01 28.18623 113.21807 217 ft 11 kts 177°
2026-04-21 13:01 28.18540 113.21812 213 ft 13 kts 176°
2026-04-21 13:01 28.18440 113.21819 213 ft 16 kts 176°
2026-04-21 13:01 28.18323 113.21825 214 ft 18 kts 178°
2026-04-21 13:02 28.18192 113.21831 213 ft 15 kts 177°
2026-04-21 13:02 28.18086 113.21839 218 ft 15 kts 177°
2026-04-21 13:02 28.17880 113.21853 213 ft 14 kts 176°
2026-04-21 13:03 28.17784 113.21864 218 ft 14 kts 160°
2026-04-21 13:03 28.17742 113.21955 221 ft 13 kts 87°
2026-04-21 13:03 28.17780 113.22038 218 ft 13 kts 28°
2026-04-21 13:03 28.17817 113.22043 214 ft 0 kts 358°
2026-04-21 13:04 28.17819 113.22043 218 ft 0 kts 358°
2026-04-21 13:04 28.17850 113.22042 219 ft 17 kts 358°
2026-04-21 13:05 28.18214 113.22020 215 ft 87 kts 356°
2026-04-21 13:05 28.19032 113.21970 219 ft 146 kts 357°
2026-04-21 13:05 28.20188 113.21874 484 ft 175 kts 354°
2026-04-21 13:05 28.21429 113.21742 1224 ft 182 kts 353°
2026-04-21 13:06 28.22689 113.21547 2083 ft 183 kts 352°
2026-04-21 13:06 28.24022 113.21470 2559 ft 200 kts 359°
2026-04-21 13:06 28.25457 113.21448 3010 ft 211 kts 358°
2026-04-21 13:06 28.26940 113.21401 3382 ft 223 kts 356°
2026-04-21 13:07 28.28504 113.21338 3594 ft 227 kts 356°
2026-04-21 13:07 28.30087 113.21265 3830 ft 227 kts 355°
2026-04-21 13:07 28.31666 113.21178 4141 ft 229 kts 354°
2026-04-21 13:07 28.33287 113.21082 4469 ft 236 kts 353°
2026-04-21 13:08 28.34933 113.20982 4834 ft 237 kts 353°
2026-04-21 13:08 28.36591 113.21039 5173 ft 245 kts 13°
2026-04-21 13:08 28.38052 113.22030 5564 ft 252 kts 49°
2026-04-21 13:08 28.38798 113.23806 5978 ft 258 kts 85°
2026-04-21 13:09 28.38928 113.25846 6415 ft 261 kts 91°
2026-04-21 13:09 28.39015 113.27915 6780 ft 267 kts 91°
2026-04-21 13:09 28.39076 113.30130 7069 ft 291 kts 98°
2026-04-21 13:09 28.38464 113.32307 7591 ft 291 kts 131°
2026-04-21 13:10 28.36992 113.33778 8275 ft 279 kts 159°
2026-04-21 13:10 28.35195 113.34527 9019 ft 273 kts 177°
2026-04-21 13:10 28.33304 113.34694 9731 ft 274 kts 184°
2026-04-21 13:10 28.31409 113.34766 10386 ft 278 kts 184°
2026-04-21 13:11 28.29430 113.34841 10784 ft 295 kts 184°
2026-04-21 13:11 28.27331 113.34673 10920 ft 310 kts 201°
2026-04-21 13:11 28.25389 113.33541 11079 ft 322 kts 223°
2026-04-21 13:11 28.24005 113.31501 11296 ft 335 kts 246°
2026-04-21 13:12 28.23352 113.28934 11815 ft 343 kts 257°
2026-04-21 13:12 28.22851 113.26280 12534 ft 344 kts 257°
2026-04-21 13:12 28.22341 113.23623 13200 ft 346 kts 257°
2026-04-21 13:12 28.21660 113.21000 13744 ft 351 kts 246°
2026-04-21 13:13 28.20465 113.18566 14252 ft 354 kts 241°
2026-04-21 13:13 28.19232 113.16183 14782 ft 357 kts 241°
2026-04-21 13:13 28.17989 113.13735 15298 ft 360 kts 242°
2026-04-21 13:13 28.16752 113.11262 15829 ft 363 kts 242°
2026-04-21 13:14 28.15524 113.08753 16329 ft 365 kts 245°
2026-04-21 13:14 28.14738 113.06022 16788 ft 367 kts 260°
2026-04-21 13:14 28.14397 113.03148 17302 ft 369 kts 262°
2026-04-21 13:14 28.14075 113.00251 17775 ft 372 kts 262°
2026-04-21 13:15 28.13728 112.97331 18222 ft 376 kts 262°
2026-04-21 13:15 28.13476 112.94417 18596 ft 379 kts 269°
2026-04-21 13:15 28.13589 112.91425 19003 ft 381 kts 272°
2026-04-21 13:15 28.13791 112.88419 19404 ft 384 kts 273°
2026-04-21 13:16 28.14010 112.85394 19789 ft 386 kts 273°
2026-04-21 13:16 28.14223 112.82352 20177 ft 389 kts 273°
2026-04-21 13:16 28.14425 112.79292 20551 ft 391 kts 273°
2026-04-21 13:16 28.14616 112.76210 20925 ft 393 kts 273°
2026-04-21 13:17 28.14801 112.73110 21304 ft 395 kts 273°
2026-04-21 13:17 28.14980 112.70039 21662 ft 397 kts 273°
2026-04-21 13:17 28.15159 112.66909 22007 ft 400 kts 273°
2026-04-21 13:17 28.15338 112.63756 22344 ft 402 kts 273°
2026-04-21 13:18 28.15517 112.60587 22681 ft 404 kts 273°
2026-04-21 13:18 28.15696 112.57403 23012 ft 406 kts 273°
2026-04-21 13:18 28.15876 112.54202 23330 ft 408 kts 273°
2026-04-21 13:18 28.16056 112.50983 23614 ft 410 kts 273°
2026-04-21 13:19 28.16235 112.47756 23882 ft 411 kts 273°
2026-04-21 13:19 28.16415 112.44512 24144 ft 413 kts 273°
2026-04-21 13:19 28.16592 112.41302 24400 ft 414 kts 273°
2026-04-21 13:19 28.16772 112.38036 24654 ft 416 kts 272°
2026-04-21 13:20 28.16952 112.34762 24904 ft 418 kts 272°
2026-04-21 13:20 28.17131 112.31471 25156 ft 419 kts 272°
2026-04-21 13:20 28.17310 112.28173 25395 ft 420 kts 272°
2026-04-21 13:20 28.17485 112.24858 25637 ft 422 kts 272°
2026-04-21 13:21 28.17674 112.21532 25888 ft 424 kts 274°
2026-04-21 13:21 28.18026 112.18211 26161 ft 425 kts 276°
2026-04-21 13:21 28.18442 112.14885 26418 ft 427 kts 277°
2026-04-21 13:21 28.18863 112.11598 26705 ft 427 kts 277°
2026-04-21 13:22 28.19280 112.08269 27075 ft 426 kts 276°
2026-04-21 13:22 28.19683 112.04955 27462 ft 423 kts 276°
2026-04-21 13:22 28.20079 112.01656 27826 ft 422 kts 277°
2026-04-21 13:22 28.20712 111.98404 28154 ft 424 kts 285°
2026-04-21 13:23 28.21727 111.95266 28535 ft 425 kts 291°
2026-04-21 13:23 28.23095 111.92292 28897 ft 427 kts 298°
2026-04-21 13:23 28.24710 111.89463 29237 ft 427 kts 300°
2026-04-21 13:23 28.26351 111.86656 29601 ft 427 kts 300°
2026-04-21 13:24 28.27992 111.83853 30019 ft 426 kts 300°
2026-04-21 13:24 28.29608 111.81074 30057 ft 430 kts 299°
2026-04-21 13:24 28.32870 111.75405 30081 ft 426 kts 299°
2026-04-21 13:25 28.36075 111.69795 30093 ft 423 kts 299°
2026-04-21 13:25 28.39276 111.64178 30101 ft 424 kts 299°
2026-04-21 13:26 28.42478 111.58560 30097 ft 424 kts 299°
2026-04-21 13:26 28.45659 111.52971 30105 ft 424 kts 298°
2026-04-21 13:27 28.48864 111.47332 30123 ft 425 kts 298°
2026-04-21 13:27 28.52091 111.41644 30096 ft 429 kts 298°
2026-04-21 13:28 28.55316 111.35957 30106 ft 428 kts 298°
2026-04-21 13:28 28.58509 111.30315 30111 ft 427 kts 298°
2026-04-21 13:29 28.61716 111.24641 30119 ft 425 kts 298°